Location: Crescent
(42.8242°N, 73.7329°W)
Time: 20:14:50
(UTC+00:00)

SR - Pass Details

Date: 24 February 2026
Orbit: 573 x 848 km, 66.7° (Epoch: 6 March)

Event Time Altitude Azimuth Distance (km) Brightness Sun altitude
Rises 07:20:49 0° 194° (SSW) 2,764 - -45.8°
Reaches altitude 10° 07:23:03 10° 188° (S) 1,879 - -45.5°
Maximum altitude 07:27:04 46° 115° (ESE) 794 - -44.9°
Drops below altitude 10° 07:31:16 10° 42° (NE) 1,974 - -44.3°
Exits shadow 07:32:32 - 38° (NE) 2,469 ? -44.1°
Sets 07:33:40 0° 36° (NE) 2,921 ? -43.9°
